Regional Weather Roundup
Issued by NWS Newport/Morehead, NC

Current Version | Previous Version | Text Only | Print | Product List | Glossary Off
Versions: 1 2 3 4 5 6 7 8 9 10 11 12 13 14 15 16 17 18 19 20 21 22 23 24 25 26 27 28 29 30 31 32 33 34 35 36 37 38 39 40 41 42 43 44 45 46 47 48 49 50
000 ASUS42 KMHX 262222 RWRMHX WEATHER ROUNDUP FOR EASTERN NORTH CAROLINA NATIONAL WEATHER SERVICE NEWPORT/MOREHEAD CITY NC 500 PM EST MON JAN 26 2015 NOTE: "FAIR" INDICATES FEW OR NO CLOUDS BELOW 12,000 FEET WITH NO SIGNIFICANT WEATHER AND/OR OBSTRUCTIONS TO VISIBILITY NCZ015>017-031-032-045>047-102-103-262300- NORTH COAST CITY SKY/WX TMP DP RH WIND PRES REMARKS EDENTON CLOUDY 49 42 77 N7 29.56R ELIZABETH CITY CLOUDY 47 42 83 NW15 29.54S KITTY HAWK CLOUDY 47 46 96 NW7 29.50F MANTEO CLOUDY 46 45 93 NW12 29.51F $$ NCZ045>047-081-094-103-104-262300- CENTRAL COAST CITY SKY/WX TMP DP RH WIND PRES REMARKS FRISCO CLOUDY 49 46 90 NW8 29.51F SWANQUARTER NOT AVBL $$ NCZ095-097-098-100-101-262300- SOUTHERN COAST CITY SKY/WX TMP DP RH WIND PRES REMARKS BEAUFORT PTCLDY 51 43 74 NW13 29.54R CEDAR ISLAND NOT AVBL JACKSONVILLE CLOUDY 55 40 56 N8 29.55R PINEY ISLAND N/A N/A N/A N/A MISG 29.54R WILMINGTON CLOUDY 54 42 64 NW12 29.57R $$ NCZ011>013-027>030-043-044-078>080-089-090>093-098-262300- COASTAL PLAIN CITY SKY/WX TMP DP RH WIND PRES REMARKS AHOSKIE CLOUDY 49 40 70 N5 29.58R CLINTON LGT RAIN 48 45 87 NW3 29.60R ELIZABETHTOWN MOCLDY 50 42 72 NW6 29.60R GOLDSBORO CLOUDY 50 49 97 NW10 29.56R GREENVILLE CLOUDY 52 41 66 N5 29.61R HAVELOCK CLOUDY 52 40 63 N12 29.56R KENANSVILLE MOCLDY 48 43 83 NW7 29.59R KINSTON CLOUDY 52 41 66 NW6 29.57R NEW BERN CLOUDY 53 41 63 NW6 29.56R RICHLANDS MOCLDY 50 39 66 NW6 29.57R ROCKY MOUNT CLOUDY 49 41 74 NW9 29.59R WASHINGTON CLOUDY 49 43 80 CALM 29.56R WHITEVILLE CLOUDY 50 45 82 W5 29.59R $$ AMZ130-135-150-152-154-156-158-170-250-252-270-ANZ085-086-088-633-658-670-262300- MARINE OBSERVATIONS STATION/POSITION TIME TEMP WIND PRES WAVE SWELL AIR SEA DIR/SP/G HT/PER HT/PER (UTC) (F) (DEG/KT/KT) (MB) (FT/S) (FT/S) CHESAPEAKE LIGHT 2200 43 330/ 26/ 29 1000.3 64 E VA BEACH 2200 51 52 350/ 14/ 16 997.1 4/ 5 2/ 9 DUCK 2200 46 44 330/ 18/ 20 998.3 2 E DUCK 2200 44 N/A 3/ 4 10 NE DUCK 2200 45 N/A 3/10 2/12 OREGON INLET 2200 47 46 320/ 9/ 13 998.8 13E OREGON INLT 2200 46 N/A 3/ 8 2/12 HATTERAS CG 2200 49 54 300/ 13/ 14 999.5 DIAMOND BUOY 2200 55 71 310/ 12/ 16 998.6 3/ 6 3/ 6 17 S OCRACOKE NOT AVBL CAPE LOOKOUT 2200 51 270/ 7/ 8 1000.1 BEAUFORT LAB 2200 52 50 350/ 7/ 9 999.3 27 SE WRIGHTSVLE NOT AVBL 5 SE WRIGHTSVLE 2200 54 52 330/ 10/ 12 1000.9 225 S CAPE HAT 2137 63 72 280/ 27/ 31 1000.2 10/ 9 7/ 9 41 SE CHARLESTON 2200 57 68 270/ 23/ 31 1003.0 7/ 7 2/13 $$

USA.gov is the U.S. government's official web portal to all federal, state and local government web resources and services.